East Midlands Airport (EMA/EGNX)




Flight Aircraft Arriving
CPX941 B738
EHAM - Schiphol International Airport
Netherlands Amsterdam, Netherlands
CPX1130 B738
EBLG - Liège Airport
Belgium Liege, Belgium
Flight Aircraft Departing
CPX940 B738
EHAM - Schiphol International Airport
Netherlands Amsterdam, Netherlands
CPX1129 B738
EBLG - Liège Airport
Belgium Liege, Belgium
Airport Information
Location: Derby, GB
Coordinates: 52.8311 / -1.32778
Elevation:
Time Offset:
Local Time:
UTC Time:
Jet A Price: $/lbs

Current Weather
METAR:
Warning: file_get_contents(https://api.aviationapi.com/v1/weather/metar?apt=EGNX): failed to open stream: HTTP request failed! HTTP/1.1 500 Internal Server Error in /var/www/capitollogistics/lib/skins/urban/hub/aptview.php on line 198
TAF: TAF EGNX 080455Z 0806/0906 28005KT CAVOK BECMG 0808/0811 05012KT TEMPO 0822/0906 BKN010 PROB40 0902/0906 7000 BKN009

Recent Arrivals
Date Flight Type Depart
04/12/2020 CPX1129 B738 Liège Airport (EBLG)
01/18/2020 CPX1129 B738 Liège Airport (EBLG)
10/22/2019 CPX729 B738 Liège Airport (EBLG)
10/18/2019 CPX729 B738 Liège Airport (EBLG)
10/04/2019 CPX729 B738 Liège Airport (EBLG)
Recent Departures
Date Flight Type Arrive
04/24/2020 CPX1130 B738 Liège Airport (EBLG)
02/16/2020 CPX1130 B738 Liège Airport (EBLG)
10/22/2019 CPX941 B738 Schiphol International Airport (EHAM)
10/19/2019 CPX941 B738 Schiphol International Airport (EHAM)